User: anonymous   Login
Location: Ar Ranvel
(48.3000°N, 4.8833°W)
Time: 07:16:34
(UTC+00:00)
Language:

DMSP 5D-2 F13 DEB - Orbit

View from above orbital plane
View from above orbital plane
View from above satellite
View from above satellite

Ground track
Ground track

The orbit data is extracted from the following two-line orbital elements,

1 40605U 95015FC  24139.37334343  .00023884  00000-0  79977-2 0  9990
2 40605  98.6476 177.0245 0028538  20.2573 339.9739 14.37057678472417
Epoch (UTC): 18 May 2024 08:57:36
Eccentricity: 0.0028538
inclination: 98.6476°
perigee height: 748 km
apogee height: 788 km
right ascension of ascending node: 177.0245°
argument of perigee: 20.2573°
revolutions per day: 14.37057678
mean anomaly at epoch: 339.9739°
orbit number at epoch: 47241

The dashed part of the orbit path shows where the satellite is in the earth's shadow,  

DLR